Location: Pensacola
(30.4142°N, 87.2155°W)
Time: 18:01:41
(UTC-05:00)

CAS-4A - Visible Passes

Search period start: 08 June 2023 00:00
Search period end: 18 June 2023 00:00
Orbit: 507 x 521 km, 43.0° (Epoch: 08 June)

Date Brightness Start Highest point End Pass type
(mag) Time Alt. Az. Time Alt. Az. Time Alt. Az.
08 Jun ? 03:09:51 34° N 03:10:35 37° NNE 03:14:17 10° E visible
08 Jun ? 04:46:37 10° WNW 04:50:10 32° SW 04:53:44 10° SSE visible
08 Jun ? 21:47:49 10° W 21:51:22 33° NNW 21:54:56 10° NE visible
08 Jun ? 23:29:43 10° NW 23:31:49 14° N 23:31:56 14° N visible
09 Jun ? 02:56:34 11° E 02:56:34 11° E 02:56:43 10° E visible
09 Jun ? 04:31:42 26° WSW 04:32:27 27° SW 04:35:51 10° SSE visible
09 Jun ? 21:30:16 10° W 21:33:43 29° NNW 21:37:12 10° NE visible
09 Jun ? 23:12:14 10° NW 23:14:14 13° N 23:15:39 12° NNE visible
10 Jun ? 21:12:43 10° W 21:16:05 27° NNW 21:19:26 10° NE visible
10 Jun ? 22:54:42 10° NW 22:56:38 13° N 22:58:33 10° NNE visible
11 Jun ? 20:55:10 10° WNW 20:58:24 24° NNW 21:01:40 10° NE visible
11 Jun ? 22:37:09 10° NNW 22:39:01 13° N 22:40:52 10° NNE visible
12 Jun ? 20:37:37 10° WNW 20:40:45 22° NNW 20:43:53 10° NNE visible
12 Jun ? 22:19:34 10° NNW 22:21:23 13° N 22:23:11 10° NNE visible
12 Jun ? 23:59:14 10° NNW 23:59:31 11° NNW 23:59:31 11° NNW visible
13 Jun ? 20:20:03 10° WNW 20:23:04 21° NNW 20:26:05 10° NNE visible
13 Jun ? 22:01:57 10° NNW 22:03:44 13° N 22:05:32 10° NNE visible
13 Jun ? 23:41:26 10° NNW 23:42:16 14° NNW 23:42:16 14° NNW visible
14 Jun ? 21:44:17 10° NNW 21:46:05 13° N 21:47:52 10° NNE visible
14 Jun ? 23:23:37 10° NNW 23:25:00 17° NNW 23:25:00 17° NNW visible
15 Jun ? 21:26:34 10° NNW 21:28:24 13° N 21:30:15 10° NNE visible
15 Jun ? 23:05:48 10° NW 23:07:43 20° N 23:07:43 20° N visible
16 Jun ? 21:08:50 10° NNW 21:10:43 13° N 21:12:37 10° NNE visible
16 Jun ? 22:47:57 10° NW 22:50:24 24° N 22:50:24 24° N visible
17 Jun ? 20:51:04 10° NNW 20:53:01 13° N 20:54:59 10° NE visible
17 Jun ? 22:30:06 10° NW 22:33:06 28° N 22:33:06 28° N visible
